Flag for Germany Weather past 2 weeks in Werl, North Rhine-Westphalia, Germany

Now
55 °F

Clear.


Feels Like: 53 °F
Forecast: 53 / 68 °F
Wind: 8 mph from South

Location: Dortmund / Wickede

Current Time: Sep 30, 2014 at 11:54:18 PM

Latest Report: Sep 30, 2014 at 10:50 PM


Visibility: 10 mi

Pressure: 30.30 "Hg

Humidity: 88%

Dew point: 52 °F

Location of WerlLocation

Historic Weather in Werl — Graph

°F

Werl temperature yesterday

Maximum temperature yesterday: 73 °F (at 2:50 PM)
Minimum temperature yesterday: 59 °F (at 5:20 AM)
Average temperature yesterday: 65 °F

Past Weeks' High & Low Weather Summary

 TemperatureHumidityPressure
High77 °F (Sep 16, 1:50 PM)100% (Sep 21, 10:20 AM)30.39 "Hg (Sep 21, 10:20 AM)
Low46 °F (Sep 23, 5:20 AM)39% (Sep 17, 3:20 PM)29.83 "Hg (Sep 19, 5:20 AM)
Average61 °F77%30.07 "Hg
* Reported Sep 15 10:20 PM — Sep 30 10:20 PM, Werl, Weather by CustomWeather, © 2014

Note: Actual official high and low records may vary slightly from our data, if they occured in-between our weather recording intervals... More about our weather records

Advertising

Werl weather history for previous 24 hours

 ConditionsComfort  
Time TempWeatherWind HumidityBarometerVisibility
10:20 PM
Sep 30
57 °FClear.7 mph88%30.30 "Hg10 mi
9:50 PM57 °FClear.7 mph88%30.30 "Hg10 mi
9:20 PM55 °FClear.6 mph88%30.30 "Hg10 mi
8:50 PM55 °FClear.5 mph88%30.30 "Hg10 mi
8:20 PM57 °FClear.3 mph88%30.30 "Hg10 mi
7:50 PM57 °FSunny.2 mph82%30.30 "Hg10 mi
7:20 PM61 °FSunny.2 mph77%30.27 "Hg10 mi
6:50 PM63 °FScattered clouds.2 mph73%30.27 "HgN/A
6:20 PM63 °FPartly sunny.3 mph77%30.27 "HgN/A
5:50 PM64 °FScattered clouds.2 mph73%30.27 "HgN/A
5:20 PM64 °FScattered clouds.5 mph68%30.27 "HgN/A
4:50 PM66 °FPartly sunny.6 mph68%30.27 "HgN/A
4:20 PM64 °FPartly sunny.7 mph73%30.27 "HgN/A
3:50 PM66 °FPartly sunny.8 mph64%30.27 "HgN/A
3:20 PM66 °FPartly sunny.9 mph60%30.27 "HgN/A
2:50 PM70 °FScattered clouds.13 mph57%30.27 "HgN/A
2:20 PM68 °FScattered clouds.12 mph64%30.27 "HgN/A
1:50 PM68 °FPartly sunny.9 mph69%30.27 "HgN/A
1:20 PM64 °FScattered clouds.8 mph73%30.27 "HgN/A
12:50 PM64 °FScattered clouds.9 mph78%30.27 "HgN/A
12:20 PM64 °FBroken clouds.8 mph78%30.27 "HgN/A
11:50 AM63 °FBroken clouds.9 mph77%30.27 "HgN/A
11:20 AM63 °FScattered showers. Scattered clouds.6 mph83%30.27 "Hg5 mi
10:50 AM63 °FScattered clouds.6 mph77%30.27 "HgN/A
10:20 AM63 °FScattered clouds.8 mph83%30.24 "HgN/A
9:50 AM61 °FPartly sunny.8 mph88%30.24 "Hg6 mi
9:20 AM61 °FPartly sunny.8 mph83%30.24 "Hg5 mi
8:50 AM61 °FPartly sunny.7 mph83%30.24 "HgN/A
8:20 AM61 °FPassing clouds.8 mph83%30.24 "Hg6 mi
7:50 AM59 °FPassing clouds.8 mph88%30.24 "Hg5 mi
7:20 AM59 °FPassing clouds.7 mph88%30.21 "Hg5 mi
6:50 AM59 °FPassing clouds.9 mph88%30.21 "HgN/A
6:20 AM59 °FPassing clouds.9 mph88%30.21 "HgN/A
5:50 AM59 °FPassing clouds.7 mph82%30.21 "HgN/A
5:20 AM59 °FLight rain. Clear.7 mph82%30.21 "HgN/A
Weather by CustomWeather, © 2014

See weather overviewHow to use our weather pages